Location: *
(37.7977°S, 57.7725°E)
Time: 18:28:35
(UTC+00:00)

Daily predictions for brighter satellites

Satellite Brightness Start Highest point End
(mag) Time Altitude Azimuth Time Altitude Azimuth Time Altitude Azimuth
NOSS 3-1 (A) 3.3 14:02:41 10° SW 14:08:50 80° WNW 14:13:51 10° NNE
Meteor 1-31 Rocket 3.8 14:07:03 10° SE 14:10:08 24° E 14:13:12 10° NNE
USA 229 DEB 3.9 14:08:36 10° SSW 14:14:51 42° SE 14:20:33 10° ENE
USA 229 3.9 14:08:44 10° SSW 14:14:56 42° SE 14:20:38 10° ENE
Cosmos 614 Rocket 4.3 14:09:49 10° NNW 14:15:01 72° WSW 14:20:15 10° SSE
ATLAS 5 CENTAUR R/B 3.8 14:12:13 10° SW 14:16:55 32° WNW 14:20:48 10° N
Cosmos 1400 Rocket 2.9 14:13:54 10° N 14:17:55 86° W 14:21:57 10° S
SeaSat 1 2.8 14:15:20 10° SE 14:20:05 44° ENE 14:24:46 10° N
Okean 2 3.4 14:16:12 10° N 14:20:07 57° E 14:24:07 10° SSE
CZ-2C R/B 2.9 14:17:16 10° SSE 14:20:42 42° E 14:24:08 10° N
Meteor 1-16 Rocket 4.4 14:14:54 10° S 14:20:52 63° E 14:26:43 10° NNE
Cosmos 44 4.2 14:20:59 10° S 14:25:06 28° SE 14:29:24 10° ENE
BREEZE-M DEB (TANK) 2.6 14:25:15 10° NNW 14:27:14 25° NE 14:28:51 14° E
ISS -2.2 14:29:06 10° N 14:31:41 20° NE 14:33:13 15° E
Cosmos 1782 Rocket 4.4 14:30:49 10° SSE 14:34:38 28° ESE 14:38:24 10° NE
Cosmos 482 Debris 2.1 14:33:00 10° NW 14:34:47 80° NE 14:35:48 23° SE
Cosmos 1346 Rocket 3.0 14:32:07 10° S 14:35:56 44° ESE 14:39:41 10° NNE
SEDSat Delta rocket 4.2 14:33:58 10° NW 14:37:26 27° NNE 14:40:12 14° ENE
SMAP 3.2 14:33:49 10° S 14:38:33 79° WSW 14:43:14 10° NNW
Cosmos 1908 Rocket 3.5 14:37:10 10° S 14:41:36 70° E 14:45:57 10° NNE
Cosmos 1269 Rocket 4.3 14:36:31 10° NNW 14:41:48 75° WSW 14:47:10 10° SSE
Cosmos 1300 4.5 14:38:27 10° SSW 14:41:49 34° W 14:45:08 10° NNW
AQUARIUS 4.1 14:39:18 10° SSE 14:43:51 89° E 14:48:20 10° NNW
Cosmos 2285 Rocket 4.0 14:41:50 10° N 14:48:14 76° ENE 14:54:43 10° SSE
ATLAS 3B R/B 4.0 14:46:43 10° SW 14:52:27 39° WNW 14:58:19 10° N
Delta 2 Rocket 3.4 14:53:07 10° WNW 14:56:48 57° N 14:58:36 29° ENE
USA 307 4.5 14:55:25 10° NNE 14:55:39 11° NNE 14:55:39 11° NNE
Cosmos 1992 Rocket 4.3 14:53:13 10° SSW 14:58:27 70° WNW 15:03:37 10° N
IGS 5A 3.7 14:57:32 10° SSE 15:01:30 42° E 15:05:24 10° N
Cosmos 1300 Rocket 3.8 14:57:46 10° S 15:01:58 44° E 15:06:07 10° NNE
CZ-4B R/B 4.1 14:58:52 10° SSE 15:03:43 35° E 15:08:27 10° NNE
Cosmos 2242 Rocket 3.6 15:02:10 10° N 15:06:37 59° E 15:11:10 10° SSE
Cosmos 1140 Rocket 3.4 15:01:52 10° N 15:07:00 71° ENE 15:12:12 10° SSE
Cosmos 2098 Rocket 4.3 15:03:06 10° S 15:09:35 49° E 15:15:57 10° NNE
Cosmos 1174 2.9 15:07:18 10° NNW 15:10:28 71° ENE 15:10:44 65° ESE
Cosmos 1455 2.0 15:06:53 10° S 15:10:31 85° W 15:14:05 10° N
Cosmos 1953 2.9 15:07:22 10° SSW 15:11:15 56° W 15:15:03 10° N
Cosmos 1656 3.9 15:08:07 10° SSW 15:13:43 51° ESE 15:16:30 28° NE
Lacrosse 5 3.5 15:11:08 10° SSW 15:14:42 19° SSE 15:15:18 18° SE
Cosmos 407 Rocket 3.4 15:12:49 10° N 15:17:53 59° ENE 15:22:58 10° SSE
BREEZE-M DEB (TANK) 4.0 15:29:07 10° SSW 15:29:39 14° SSW 15:29:39 14° SSW
Meteor 1-4 Rocket 4.5 15:30:25 10° NNW 15:31:10 16° NNW 15:31:10 16° NNW
Cosmos 1833 Rocket 2.5 15:27:52 10° NNW 15:33:28 73° ENE 15:37:45 18° SSE
USA 215 3.2 15:40:25 44° ENE 15:42:37 73° SE 15:49:12 10° SW
NOAA 6 4.3 15:38:21 10° S 15:43:33 68° WSW 15:48:41 10° NNW
ASTRO E2 4.3 15:42:44 10° WNW 15:44:47 23° NW 15:44:47 23° NW
Cosmos 1315 Rocket 4.2 15:43:00 10° NNW 15:46:43 38° WSW 15:50:31 10° S
Cosmos 1066 4.5 15:41:55 10° N 15:47:22 76° E 15:52:56 10° SSE
Cosmos 2360 4.3 15:45:11 10° SSW 15:50:28 57° SE 15:50:28 57° SE
ADEOS Rocket 3.1 15:47:30 10° SSE 15:54:38 87° ENE 16:00:55 10° NNW
Cosmos 2251 Rocket 3.9 15:51:31 10° NNW 15:56:49 63° WSW 16:02:13 10° SSE
Meteor 2-5 Rocket 3.8 15:51:29 10° N 15:57:28 86° W 16:03:25 10° S
Cosmos 1980 Rocket 4.1 15:55:06 10° S 15:56:40 16° SSE 15:56:40 16° SSE
Cosmos 2184 Rocket 4.4 15:55:20 10° NNW 16:01:36 63° W 16:08:01 10° S
Cosmos 2154 Rocket 4.1 15:57:04 10° NNW 16:03:19 76° W 16:09:41 10° S
Cosmos 1610 Rocket 4.4 16:00:38 10° N 16:07:02 89° W 16:13:31 10° S
ISS -1.0 16:05:00 10° WNW 16:06:09 19° W 16:06:09 19° W
Cosmos 1697 Rocket 3.6 16:05:32 10° SSW 16:09:09 38° S 16:09:09 38° S
Meteor 1-24 Rocket 4.3 16:12:10 10° NNW 16:17:57 58° W 16:23:38 10° S
Lacrosse 5 4.3 16:53:14 10° SW 16:54:30 18° SW 16:54:30 18° SW
CENTAUR R/B 4.4 22:40:11 31° ESE 22:40:11 31° ESE 22:43:51 10° SE
Cosmos 1844 Rocket 4.3 23:47:26 25° S 23:47:26 25° S 23:49:45 10° SSE
NOSS 3-2 (A) 4.1 23:46:15 83° NW 23:46:38 88° WSW 23:54:48 10° SSE
